Location: G�migny
(47.9646°N, 1.6950°E)
Time: 02:12:04
(UTC+00:00)

STARLINK-55 - Pass Details

Date: 23 October 2019
Orbit: 548 x 551 km, 53.0° (Epoch: 16 November)

Event Time Altitude Azimuth Distance (km) Brightness Sun altitude
Rises 17:25:34 0° 281° (W) 2,717 8.7 -6.5°
Reaches altitude 10° 17:27:54 10° 289° (WNW) 1,824 7.4 -6.9°
Maximum altitude 17:31:50 40° 360° (N) 819 4.4 -7.6°
Enters shadow 17:35:44 10° 71° (ENE) 1,816 5.6 -8.2°
